Tracking 17886 objects as of 9-December-2016
HD Live streaming from Space Station
objects crossing your sky now

CZ-3A DEB

Track CZ-3A DEB now!


NORAD ID: 35557
Int'l Code: 2007-003R
Perigee: 390.4 km
Apogee: 29,492.0 km
Inclination: 22.9 °
Period: 516.1 minutes
Semi major axis: 21312 km
RCS: 0.1574 m2 (medium)
Launch date: February 2, 2007
Source: People's Republic of China (PRC)
Launch site: Xichang Space Center, China (XSC)

Note: This is SATELLITE DEBRIS
Your satellite tracking list
Your tracking list is empty





NASA's NSSDC Master Catalog

Two Line Element Set (TLE):
1 35557U 07003R   16343.45139992  .00001076  00000-0  15513-2 0  9995
2 35557  22.9234 113.8202 6827450 355.9850   0.4520  2.79035600 74120
Source of the keplerian elements: AFSPC